Preview of NWS' New Version of Forecast
This preview is not operational and should not be used for support decisions.

Regional Weather Roundup (RWR)

Issued by National Weather Service (NWS)

                            
000
ASUS42 KTBW 150518
RWRFL 
FLORIDA REGIONAL WEATHER ROUNDUP
NATIONAL WEATHER SERVICE TAMPA BAY RUSKIN FL
100 AM EDT SUN SEP 15 2019

NOTE: "FAIR" INDICATES FEW OR NO CLOUDS BELOW 12,000 FEET WITH NO
SIGNIFICANT WEATHER AND/OR OBSTRUCTIONS TO VISIBILITY.

FLZ001>010-012>015-112-114-115-150600-
PANHANDLE FLORIDA
  
CITY           SKY/WX    TMP DP  RH WIND       PRES   REMARKS
PENSACOLA      FAIR      82  71  69 VRB5      30.05F                  
PENSACOLA NAS  FAIR      83  71  67 NE10      30.04F                  
MILTON NAS     FAIR      77  32  19 NE3       30.07S                  
CRESTVIEW      FAIR      77  68  73 NE3       30.08F                  
DUKE FIELD     FAIR      78  68  71 NE3       30.06F                  
VALPARAISO     FAIR      82  67  60 NE7       30.05F                  
MARY ESTHER    PTCLDY    81  68  64 E6        30.04S                  
TRI COUNTY     FAIR      77  69  76 N3        30.08F                  
PANAMA CITY    FAIR      80  68  66 NE6       30.04F                  
TYNDALL AFB    FAIR      80  70  71 E8        30.04F                  
APALACHICOLA   FAIR      80  69  69 NE7       30.03F                  

STATION/POSITION SKY/WX   TEMP    WIND        PRES    WAVE   SWELL
                          AIR SEA DIR/SP/G            HT/PER HT/PER
                          (F)     (DEG/KT/KT) (MB)    (FT/S) (FT/S)
30.1N   87.6W              87 86   70/ 17/ 23 1017.1F   3/ 7
29.2N   88.2W              85      60/ 10/ 14 1016.5F   5/ 7   5/ 7
28.8N   86.0W                 85   80/ 17/ 23 1015.6F   4/ 6   2/ 8
PANAMA CITY BEAC           83 86   60/  6/  8 1018.1
TOWER C                    83      80/ 24/ 27 1016.8S
28.5N   84.5W              84      60/ 19/ 25 1015.9F   6/ 6

$$
FLZ011-016>038-118-127-128-134-139-239-150600-
NORTH FLORIDA
  
CITY           SKY/WX    TMP DP  RH WIND       PRES   REMARKS
MARIANNA       FAIR      78  71  79 E6        30.06F                  
TALLAHASSEE    FAIR      79  71  76 NE7       30.06F                  
PERRY          FAIR      77  72  84 NE6       30.06F                  
LIVE OAK       PTCLDY    75  73  94 N5        30.05F                  
CROSS CITY       N/A     77  73  85 NE8       30.03F                  
LAKE CITY      FAIR      73  70  88 NE3       30.05S                  
GAINESVILLE    FAIR      76  73  91 N8        30.04F                  
WILLISTON      FAIR      76  74  92 NE6       30.02F                  
PALATKA        CLOUDY    73  73 100 N3        30.02S                  
MAYPORT NAS    MOCLDY    83  75  77 NE23G31   30.03F                  
JACKSONVILLE   MOCLDY    81  74  79 NE14      30.03F                  
JAX NAS        LGT RAIN  81  75  82 NE13      30.04F                  
JAX CECIL      MOCLDY    77  75  94 CALM      30.03F                  
FERNANDINA BEA MOCLDY    82  76  81 NE14G21   30.04F                  
ST AUGUSTINE   MOCLDY   N/A N/A N/A NE16      30.02F                  
PALM COAST     MOCLDY    76  74  92 NE3       30.00F                  

STATION/POSITION SKY/WX   TEMP    WIND        PRES    WAVE   SWELL
                          AIR SEA DIR/SP/G            HT/PER HT/PER
                          (F)     (DEG/KT/KT) (MB)    (FT/S) (FT/S)
SHELL POINT      NOT AVBL
KEATON BEACH               76      40/  6/  9 1017.3F
CEDAR KEY                  79      40/  6/  8 1016.9R
FERNANDINA                 87 84   40/  6/ 12 1018.3
30.7N   81.3W                 83                N/A     6/ 7
MAYPORT                    83 83   50/ 18/ 22 1017.5
31.4N   80.9W              82 83   60/ 17/ 21 1017.4F   6/ 9   3/ 9
ST AUGUSTINE               83 83   50/ 21/ 23 1016.2F

$$
FLZ040-043>046-052-053-057-058-063-144-150600-
INTERIOR CENTRAL FLORIDA
  
CITY           SKY/WX    TMP DP  RH WIND       PRES   REMARKS
OCALA          FAIR      78  75  90 VRB5      30.02F                  
LEESBURG       FAIR      78  75  90 N6        30.01F                  
SANFORD        LGT RAIN  78  76  93 N6        29.98F                  
ORLANDO EXEC   FAIR      78  75  90 N5        29.98F                  
ORLANDO INTL   CLOUDY    77  74  90 N6        29.98F                  
KISSIMMEE      FAIR      79  75  87 N5        29.99F                  
WINTER HAVEN   FAIR      79  75  87 N5        29.99F                  
LAKELAND       CLEAR     77  75  94 N5        29.99F                  
BARTOW           N/A     79  75  89 N6        29.97F                  
SEBRING        FAIR      77  75  95 NW6       29.96F                  
OKEECHOBEE       N/A     73  73 100 CALM      29.94F                  

$$
FLZ041-047-054-059-064-141-147-150600-
EAST CENTRAL FLORIDA
  
CITY           SKY/WX    TMP DP  RH WIND       PRES   REMARKS
DAYTONA BEACH  FAIR      81  77  89 NE9       29.99F                  
DELAND         FAIR      75  73  94 N5        29.99F                  
JFK SPACE CTR  PTCLDY    78  76  91 NE6       29.95F                  
CAPE CANAVERAL FAIR      80  80  98 NE8       29.93F                  
PATRICK AFB    FAIR      81  81 100 E9G23     29.94F                  
MELBOURNE      LGT RAIN  78  75  90 W6        29.94F                  
VERO BEACH     FAIR      78  75  90 NW5       29.93F                  
FT PIERCE      FAIR      76  74  93 W6        29.93F                  
STUART         FAIR      79  73  83 NW3       29.94S                  

STATION/POSITION SKY/WX   TEMP    WIND        PRES    WAVE   SWELL
                          AIR SEA DIR/SP/G            HT/PER HT/PER
                          (F)     (DEG/KT/KT) (MB)    (FT/S) (FT/S)
28.5N   80.2W              81 85   40/ 12/ 16 1013.9F   8/ 8   5/ 8
28.9N   78.5W              80 82              1011.6F  10/ 9
TRIDENT PIER               79 84   10/  3/  5 1015.6
28.4N   80.5W                 83                N/A     4/ 9   2/11
27.5N   80.2W                 83                N/A     6/10   2/11

$$
FLZ050-056-061-142-242-148-248-149-249-151-251-155-255-
160-260-150600-
WEST CENTRAL FLORIDA
  
CITY           SKY/WX    TMP DP  RH WIND       PRES   REMARKS
CRYSTAL RIVER  FAIR      77  73  88 CALM      30.01F                  
INVERNESS      MOCLDY    77  77 100 CALM      30.01F                  
BROOKSVILLE    FAIR      77  75  93 NE5       30.00F                  
CLEARWATER AIR FAIR      79  73  83 NE5       29.98F                  
ST PETE CLEARW FAIR      81  74  79 NE9       29.98F                  
TAMPA INTL     MOCLDY    80  74  81 NE7       29.99F                  
TAMPA EXEC     FAIR      77  77 100 CALM      29.99F                  
PLANT CITY     FAIR      77  77 100 N3        30.00F                  
MACDILL AFB    FAIR      78  74  87 E9        29.97F                  
PETER O KNIGHT FAIR     N/A N/A N/A NE8       29.98F                  
ST PETERSBURG  FAIR      81  76  84 NE14      29.96F                  
SARASOTA       FAIR      81  75  82 NE7       29.95F                  
VENICE         FAIR      79  77  94 NE7       29.95F                  

STATION/POSITION SKY/WX   TEMP    WIND        PRES    WAVE   SWELL
                          AIR SEA DIR/SP/G            HT/PER HT/PER
                          (F)     (DEG/KT/KT) (MB)    (FT/S) (FT/S)
27.3N   84.2W                 85                N/A     6/ 6
CLEARWATER BEACH           80 86   40/  9/ 12 1015.7
MIDDLE TAMPA BAY           80      80/ 13/ 14 1015.6
VENICE                     79 86   30/  5/  7 1014.0F

$$
FLZ066-069-070-075>078-162-262-165-265-150600-
SOUTHWEST FLORIDA AND KEYS
  
CITY           SKY/WX    TMP DP  RH WIND       PRES   REMARKS
PUNTA GORDA    FAIR      78  76  93 NE6       29.97F                  
FT MYERS       FAIR      78  75  90 CALM      29.94F                  
SOUTHWEST INTL FAIR      78  77  96 CALM      29.95S                  
NAPLES         FAIR      79  78  97 CALM      29.94S                  
MARCO ISLAND   FAIR      77  76  96 N6        29.95S                  
IMMOKALEE      MOCLDY    77  77 100 N3        29.93S                  
MARATHON       FAIR      82  78  88 CALM      29.93S                  
KEY WEST NAS   FAIR      81  78  91 SW3       29.93F                  
KEY WEST INTL  FAIR      82  78  88 CALM      29.94S                  

STATION/POSITION SKY/WX   TEMP    WIND        PRES    WAVE   SWELL
                          AIR SEA DIR/SP/G            HT/PER HT/PER
                          (F)     (DEG/KT/KT) (MB)    (FT/S) (FT/S)
NAPLES                     79 85   40/  6/  8 1014.0
26.0N   85.6W              83 85  100/ 12/ 17 1014.2F   7/ 8   7/ 8
DRY TORTUGAS               84     150/  2/  3 1013.8R
SOMBRERO KEY               84     190/  4/  5 1013.9
LONG KEY                   83                 1012.6

$$
FLZ067-068-071>074-168-172>174-150600-
SOUTHEAST FLORIDA 
  
CITY           SKY/WX    TMP DP  RH WIND       PRES   REMARKS
W PALM BEACH   MOCLDY    79  76  90 NW8       29.93S                  
FT LAUDER-EXEC FAIR      80  76  87 NW5       29.92F                  
FT LAUDERDALE  MOCLDY    80  75  84 NW6       29.91F                  
POMPANO BEACH  FAIR      81  75  82 NW8       29.92F                  
PEMBROKE PINES FAIR      81  74  79 NW6       29.94F                  
OPA LOCKA      FAIR      80  78  94 W5        29.93F                  
MIAMI          MOCLDY    80  77  90 W3        29.94R                  
WEST KENDALL   FAIR      78  78 100 W3        29.93F                  
HOMESTEAD      CLOUDY    79  78  96 NW5       29.92F                  

STATION/POSITION SKY/WX   TEMP    WIND        PRES    WAVE   SWELL
                          AIR SEA DIR/SP/G            HT/PER HT/PER
                          (F)     (DEG/KT/KT) (MB)    (FT/S) (FT/S)
VIRGINIA KEY               81 87  280/  1/  4 1013.1
LAKE WORTH                 80 85  300/  4/  6 1014.4
FOWEY ROCKS                81 85  300/  9/ 10 1013.8F
SETTLEMENT POINT           82     310/ 13/ 15 1011.7F

$$